"Pseudo-MPEC" for P115YcK

Created 2020 Sep 19 11:07:27 UT using Find_Orb

Click here for an explanation of pseudo-MPECs

 
 Astrometry: 
     P115YcK  C2020 09 14w?4TvHHeuZU;:b(=ag/tm:Fm8mJgjI!gh5ue8CP3#,NrH1i/xx*kF51
     P115YcK  C2020 09 14lP_*wcrh2MU!c+fU(pB,VKX$\Gh4AstrometryyrZksP\BoOQJl\F51
     P115YcK  C2020 09 146Ge`DK=o]u+^cs][-(8Xl=Z420?\VLXA2F)K]%redacted;VAh)XF51
     P115YcK ^C2020 09 16.33424800 11 20.362-02 45 14.38   ~9I87 22.65GVNEOCP568
     P115YcK ^C2020 09 16.33542400 11 20.090-02 45 13.88   ~9I87 22.76GVNEOCP568
     P115YcK ^C2020 09 16.33660400 11 19.821-02 45 13.33   ~9I87 22.60GVNEOCP568
     P115YcK ^C2020 09 16.33778200 11 19.549-02 45 12.88   ~9I87 22.58GVNEOCP568
     P115YcK  C2020 09 16$7`qsb4-PFqo\Nqb,lO.lXYO]ipLN*ci[bboclicko8pg-,oYo!%F51
     P115YcK  C2020 09 16D/rVBG:ert7F$Ui$6+@_!XUB?kx1lX/UPeQwYoSSpWb_5xkU8FgGF51
     P115YcK  C2020 09 16B-c3_tY=)4moeEN[n(h9QX)OI8AIiEgR2LMkD0%kYD6.%_jm#]x[F51
     P115YcK  C2020 09 18f(^%Ia_8,Lkrxrcv\Bhf$JE=nmAQkVrs;QCV65=bZ5:,y7iA%+b]F51
     P115YcK  C2020 09 18/a!#Tv.RZMG1p$G`A/@V$MhereU;Q@!m#0TXgcTO=-0jTA;2C!S,F51
     P115YcK  C2020 09 18A00H?KdJEeforq#OL[ijl,wP+wk@lexplanationKMh5]6/cUYbtF51

Station data:
(568) Mauna Kea  (N19.826116 W155.472200)  US/Hawaii.
(F51) Pan-STARRS 1, Haleakala  (N20.707235 W156.255910)  US/Hawaii.
   Observers N. Primak, A. Schultz, S. Watters, J. Thiel, T. Goggia. Measurer
   PS1 Science Consortium. 1.8-m Ritchey-Chrétien + CCD.

Orbital elements:  P115YcK
   Perihelion 2021 Feb 14.176628 +/- 0.528 TT =  4:14:20 (JD 2459259.676628)
Epoch 2020 Sep 18.0 TT = JDT 2459110.5   Earth MOID: 0.2138   Ve: 0.0356
M 226.39774928 +/- 0.9              Ma: 0.0095                AutoNEOCP
n   0.89559773 +/- 0.00302          Peri.  153.38665 +/- 0.12
a   1.06592682 +/- 0.0024           Node   359.17026 +/- 0.022
e   0.3652308 +/- 0.00792           Incl.   16.96017 +/- 0.51
P   1.10/401.96d           H 23.6   G  0.15   U  8.9  
q 0.67661741 +/- 0.0069    Q 1.45523622 +/- 0.0117
From 13 observations 2020 Sept. 14-18; mean residual 0".11
Residuals in arcseconds: 
200914 F51  .03-  .12+    200916 568  .00   .06+    200918 F51  .17-  .00     
200914 F51  .11+  .08+    200916 568  .03-  .02-    200918 F51  .06-  .01+    
200914 F51  .09-  .24-    200916 F51  .07+  .02+    200918 F51  .23+  .02-    
200916 568  .02+  .06+    200916 F51  .23+  .03-    
200916 568  .02-  .03+    200916 F51  .25-  .07-    

Ephemerides (geocentric):
Date (UTC) HH   RA              Dec         delta   r     elong  mag " sig PA
---- -- -- --  -------------   -----------  ------ ------ -----  --- ---- ---
2020 09 19 11  23 59 20.952   -02 20 44.05  .37864 1.3827 176.9 22.5 .927  88
2020 09 19 12  23 59 11.086   -02 20 23.78  .37852 1.3826 177.0 22.5 .965  88
2020 09 19 13  23 59 01.213   -02 20 03.49  .37840 1.3825 177.1 22.5 1.00  89
2020 09 19 14  23 58 51.334   -02 19 43.18  .37828 1.3824 177.2 22.5 1.04  89
2020 09 19 15  23 58 41.448   -02 19 22.85  .37816 1.3823 177.2 22.5 1.08  89
2020 09 19 16  23 58 31.555   -02 19 02.50  .37804 1.3821 177.3 22.4 1.12  90
2020 09 19 17  23 58 21.656   -02 18 42.13  .37792 1.3820 177.4 22.4 1.17  90
2020 09 19 18  23 58 11.750   -02 18 21.74  .37781 1.3819 177.4 22.4 1.21  90
2020 09 19 19  23 58 01.838   -02 18 01.33  .37769 1.3818 177.5 22.4 1.25  90
2020 09 19 20  23 57 51.919   -02 17 40.90  .37757 1.3817 177.6 22.4 1.30  91
2020 09 19 21  23 57 41.994   -02 17 20.44  .37746 1.3816 177.6 22.4 1.34  91
2020 09 19 22  23 57 32.063   -02 16 59.97  .37734 1.3815 177.7 22.4 1.39  91
2020 09 19 23  23 57 22.125   -02 16 39.48  .37723 1.3813 177.7 22.4 1.43  91
2020 09 20 00  23 57 12.181   -02 16 18.96  .37711 1.3812 177.8 22.4 1.48  92
2020 09 20 01  23 57 02.231   -02 15 58.43  .37700 1.3811 177.9 22.4 1.53  92
2020 09 20 02  23 56 52.274   -02 15 37.87  .37689 1.3810 177.9 22.4 1.58  92
2020 09 20 03  23 56 42.312   -02 15 17.29  .37677 1.3809 178.0 22.4 1.63  92
2020 09 20 04  23 56 32.343   -02 14 56.70  .37666 1.3808 178.0 22.4 1.68  92
2020 09 20 05  23 56 22.368   -02 14 36.08  .37655 1.3807 178.1 22.4 1.73  93
2020 09 20 06  23 56 12.387   -02 14 15.44  .37644 1.3805 178.2 22.4 1.79  93
2020 09 20 07  23 56 02.400   -02 13 54.79  .37632 1.3804 178.2 22.4 1.84  93
2020 09 20 08  23 55 52.407   -02 13 34.11  .37621 1.3803 178.3 22.4 1.89  93
2020 09 20 09  23 55 42.408   -02 13 13.41  .37610 1.3802 178.3 22.4 1.95  93
2020 09 20 10  23 55 32.403   -02 12 52.69  .37599 1.3801 178.3 22.4 2.01  93
2020 09 20 11  23 55 22.392   -02 12 31.95  .37588 1.3800 178.4 22.4 2.06  93
2020 09 20 12  23 55 12.375   -02 12 11.19  .37577 1.3798 178.4 22.4 2.12  93
2020 09 20 13  23 55 02.352   -02 11 50.41  .37567 1.3797 178.5 22.4 2.18  94
2020 09 20 14  23 54 52.324   -02 11 29.60  .37556 1.3796 178.5 22.4 2.24  94
2020 09 20 15  23 54 42.289   -02 11 08.78  .37545 1.3795 178.5 22.4 2.30  94
2020 09 20 16  23 54 32.249   -02 10 47.94  .37534 1.3794 178.5 22.4 2.36  94
2020 09 20 17  23 54 22.204   -02 10 27.07  .37523 1.3793 178.6 22.3 2.43  94
2020 09 20 18  23 54 12.152   -02 10 06.19  .37513 1.3792 178.6 22.3 2.49  94
2020 09 20 19  23 54 02.095   -02 09 45.29  .37502 1.3790 178.6 22.3 2.55  94
2020 09 20 20  23 53 52.033   -02 09 24.36  .37492 1.3789 178.6 22.3 2.62  94
2020 09 20 21  23 53 41.965   -02 09 03.42  .37481 1.3788 178.6 22.3 2.69  94
2020 09 20 22  23 53 31.891   -02 08 42.45  .37471 1.3787 178.6 22.3 2.75  94
2020 09 20 23  23 53 21.812   -02 08 21.46  .37460 1.3786 178.6 22.3 2.82  94
2020 09 21 00  23 53 11.727   -02 08 00.46  .37450 1.3785 178.6 22.3 2.89  94
2020 09 21 01  23 53 01.637   -02 07 39.43  .37439 1.3783 178.6 22.3 2.96  94
2020 09 21 02  23 52 51.542   -02 07 18.38  .37429 1.3782 178.6 22.3 3.03  95
2020 09 21 03  23 52 41.441   -02 06 57.31  .37419 1.3781 178.5 22.3 3.11  95
2020 09 21 04  23 52 31.335   -02 06 36.22  .37409 1.3780 178.5 22.3 3.18  95
2020 09 21 05  23 52 21.224   -02 06 15.12  .37399 1.3779 178.5 22.3 3.25  95
2020 09 21 06  23 52 11.108   -02 05 53.99  .37388 1.3777 178.4 22.3 3.33  95
2020 09 21 07  23 52 00.986   -02 05 32.84  .37378 1.3776 178.4 22.4 3.40  95
2020 09 21 08  23 51 50.859   -02 05 11.66  .37368 1.3775 178.4 22.4 3.48  95
2020 09 21 09  23 51 40.727   -02 04 50.47  .37358 1.3774 178.3 22.4 3.56  95
2020 09 21 10  23 51 30.590   -02 04 29.26  .37348 1.3773 178.3 22.4 3.64  95